Location: Campestrin
(46.4667°N, 11.7167°E)
Time: 04:55:32
(UTC+00:00)

Meteor 2-16 Rocket - Pass Details

Date: 18 April 2021
Orbit: 942 x 955 km, 82.6° (Epoch: 16 May)

Event Time Altitude Azimuth Distance (km) Brightness Sun altitude
Rises 20:18:36 0° 352° (N) 3,643 8.3 -20.5°
Reaches altitude 10° 20:21:08 10° 355° (N) 2,694 7.5 -20.8°
Maximum altitude 20:27:17 71° 79° (E) 1,012 4.4 -21.6°
Enters shadow 20:29:26 42° 150° (SSE) 1,336 4.7 -21.8°
